TimePDT,TemperatureF,Dew PointF,Humidity,Sea Level PressureIn,VisibilityMPH,Wind Direction,Wind SpeedMPH,Gust SpeedMPH,PrecipitationIn,Events,Conditions,WindDirDegrees,DateUTC
12:15 AM,53.6,50.0,88,29.97,10.0,NW,3.5,-,N/A,,Clear,320,2013-08-02 07:15:00
12:35 AM,53.6,51.8,94,29.97,10.0,NNW,3.5,-,N/A,,Clear,330,2013-08-02 07:35:00
12:55 AM,50.0,50.0,100,29.96,10.0,Calm,Calm,-,N/A,,Clear,0,2013-08-02 07:55:00
1:15 AM,53.6,51.8,94,29.96,10.0,Calm,Calm,-,N/A,,Clear,0,2013-08-02 08:15:00
1:35 AM,50.0,50.0,100,29.95,10.0,Calm,Calm,-,N/A,,Clear,0,2013-08-02 08:35:00
1:55 AM,50.0,50.0,100,29.95,10.0,Calm,Calm,-,N/A,,Clear,0,2013-08-02 08:55:00
2:15 AM,50.0,50.0,100,29.95,10.0,Calm,Calm,-,N/A,,Clear,0,2013-08-02 09:15:00
2:35 AM,50.0,50.0,100,29.95,10.0,South,4.6,-,N/A,,Clear,170,2013-08-02 09:35:00
2:55 AM,53.6,53.6,100,29.95,10.0,Calm,Calm,-,N/A,,Clear,0,2013-08-02 09:55:00
3:15 AM,48.2,48.2,100,29.95,10.0,NNW,3.5,-,N/A,,Clear,340,2013-08-02 10:15:00
3:35 AM,48.2,48.2,100,29.94,10.0,Calm,Calm,-,N/A,,Clear,0,2013-08-02 10:35:00
3:55 AM,48.2,48.2,100,29.94,10.0,Calm,Calm,-,N/A,,Clear,0,2013-08-02 10:55:00
4:15 AM,50.0,50.0,100,29.94,10.0,Calm,Calm,-,N/A,,Clear,0,2013-08-02 11:15:00
4:35 AM,50.0,50.0,100,29.94,10.0,Calm,Calm,-,N/A,,Clear,0,2013-08-02 11:35:00
4:55 AM,50.0,50.0,100,29.94,10.0,Calm,Calm,-,N/A,,Clear,0,2013-08-02 11:55:00
5:35 AM,48.2,48.2,100,29.95,10.0,Calm,Calm,-,N/A,,Clear,0,2013-08-02 12:35:00
5:55 AM,48.2,48.2,100,29.96,10.0,Calm,Calm,-,N/A,,Clear,0,2013-08-02 12:55:00
6:15 AM,50.0,50.0,100,29.96,10.0,Calm,Calm,-,N/A,,Clear,0,2013-08-02 13:15:00
6:35 AM,48.2,48.2,100,29.97,10.0,Calm,Calm,-,N/A,,Clear,0,2013-08-02 13:35:00
6:55 AM,50.0,50.0,100,29.97,10.0,South,4.6,-,N/A,,Clear,170,2013-08-02 13:55:00
7:15 AM,51.8,51.8,100,29.97,10.0,Calm,Calm,-,N/A,,Clear,0,2013-08-02 14:15:00
7:35 AM,51.8,51.8,100,29.98,10.0,Calm,Calm,-,N/A,,Clear,0,2013-08-02 14:35:00
7:55 AM,53.6,53.6,100,29.98,10.0,Calm,Calm,-,N/A,,Clear,0,2013-08-02 14:55:00
8:15 AM,55.4,51.8,88,29.98,10.0,Calm,Calm,-,N/A,,Clear,0,2013-08-02 15:15:00
8:35 AM,57.2,51.8,82,29.98,10.0,Calm,Calm,-,N/A,,Clear,0,2013-08-02 15:35:00
8:55 AM,59.0,51.8,77,29.99,10.0,NE,3.5,-,N/A,,Clear,40,2013-08-02 15:55:00
9:15 AM,60.8,51.8,72,29.99,10.0,Calm,Calm,-,N/A,,Clear,0,2013-08-02 16:15:00
9:35 AM,62.6,53.6,72,29.98,10.0,Calm,Calm,-,N/A,,Clear,0,2013-08-02 16:35:00
9:55 AM,64.4,51.8,64,29.98,10.0,Calm,Calm,-,N/A,,Clear,0,2013-08-02 16:55:00
10:15 AM,66.2,51.8,60,29.98,10.0,Calm,Calm,-,N/A,,Clear,0,2013-08-02 17:15:00
10:35 AM,66.2,51.8,60,29.97,10.0,NE,4.6,-,N/A,,Clear,50,2013-08-02 17:35:00
10:55 AM,69.8,53.6,56,29.97,10.0,ESE,4.6,-,N/A,,Clear,110,2013-08-02 17:55:00
11:15 AM,68.0,55.4,64,29.97,-9999.0,ESE,8.1,-,N/A,,Clear,120,2013-08-02 18:15:00
11:35 AM,69.8,55.4,60,29.97,10.0,ESE,8.1,-,N/A,,Clear,120,2013-08-02 18:35:00
11:55 AM,69.8,55.4,60,29.96,10.0,SE,4.6,-,N/A,,Clear,130,2013-08-02 18:55:00
12:15 PM,71.6,53.6,53,29.96,10.0,SE,5.8,-,N/A,,Clear,130,2013-08-02 19:15:00
12:35 PM,73.4,53.6,50,29.96,-9999.0,East,5.8,-,N/A,,Clear,100,2013-08-02 19:35:00
12:55 PM,75.2,55.4,50,29.95,-9999.0,ESE,5.8,-,N/A,Rain,Light Rain,120,2013-08-02 19:55:00
1:15 PM,75.2,55.4,50,29.94,-9999.0,East,8.1,-,N/A,,Clear,90,2013-08-02 20:15:00
1:35 PM,77.0,55.4,47,29.94,-9999.0,East,9.2,-,N/A,,Clear,100,2013-08-02 20:35:00
1:55 PM,77.0,55.4,47,29.93,-9999.0,SE,9.2,-,N/A,,Clear,130,2013-08-02 20:55:00
2:15 PM,78.8,55.4,44,29.93,-9999.0,ESE,8.1,-,N/A,,Clear,120,2013-08-02 21:15:00
2:35 PM,80.6,55.4,42,29.92,-9999.0,ESE,8.1,-,N/A,,Clear,110,2013-08-02 21:35:00
2:55 PM,82.4,53.6,37,29.91,-9999.0,SSE,5.8,-,N/A,Rain,Light Rain,150,2013-08-02 21:55:00
3:15 PM,82.4,53.6,37,29.91,-9999.0,SE,4.6,-,N/A,Rain,Light Rain,130,2013-08-02 22:15:00
3:35 PM,82.4,53.6,37,29.90,-9999.0,SW,10.4,-,N/A,,Clear,230,2013-08-02 22:35:00
3:55 PM,84.2,53.6,35,29.89,-9999.0,NE,11.5,-,N/A,,Clear,50,2013-08-02 22:55:00
4:15 PM,82.4,55.4,39,29.89,-9999.0,East,5.8,-,N/A,,Clear,90,2013-08-02 23:15:00
4:35 PM,82.4,51.8,35,29.89,-9999.0,WSW,8.1,-,N/A,,Clear,240,2013-08-02 23:35:00
4:55 PM,82.4,51.8,35,29.89,-9999.0,East,6.9,-,N/A,,Clear,100,2013-08-02 23:55:00
5:15 PM,80.6,50.0,34,29.89,-9999.0,SW,5.8,-,N/A,,Clear,230,2013-08-03 00:15:00
5:35 PM,77.0,48.2,36,29.89,-9999.0,SW,9.2,-,N/A,,Clear,230,2013-08-03 00:35:00
5:55 PM,77.0,50.0,39,29.89,-9999.0,WSW,13.8,-,N/A,,Clear,240,2013-08-03 00:55:00
6:15 PM,75.2,50.0,41,29.89,-9999.0,SW,11.5,18.4,N/A,,Clear,220,2013-08-03 01:15:00
6:35 PM,73.4,50.0,44,29.89,-9999.0,SSW,8.1,-,N/A,,Clear,210,2013-08-03 01:35:00
6:55 PM,73.4,50.0,44,29.89,-9999.0,Calm,Calm,-,N/A,,Clear,0,2013-08-03 01:55:00
7:15 PM,73.4,50.0,44,29.89,-9999.0,SSE,3.5,-,N/A,,Clear,150,2013-08-03 02:15:00
7:35 PM,71.6,50.0,46,29.89,-9999.0,SSW,3.5,-,N/A,,Clear,200,2013-08-03 02:35:00
7:55 PM,68.0,50.0,52,29.89,-9999.0,SSE,3.5,-,N/A,,Clear,150,2013-08-03 02:55:00
8:15 PM,64.4,50.0,59,29.90,10.0,South,6.9,-,N/A,,Clear,170,2013-08-03 03:15:00
8:35 PM,64.4,50.0,59,29.90,10.0,Calm,Calm,-,N/A,,Clear,0,2013-08-03 03:35:00
8:55 PM,57.2,48.2,72,29.91,10.0,Calm,Calm,-,N/A,,Clear,0,2013-08-03 03:55:00
9:15 PM,59.0,50.0,72,29.91,10.0,SW,3.5,-,N/A,,Clear,230,2013-08-03 04:15:00
9:35 PM,57.2,48.2,72,29.92,10.0,Calm,Calm,-,N/A,,Clear,0,2013-08-03 04:35:00
9:55 PM,57.2,50.0,77,29.92,10.0,Calm,Calm,-,N/A,,Clear,0,2013-08-03 04:55:00
10:15 PM,53.6,48.2,82,29.93,10.0,Calm,Calm,-,N/A,,Clear,0,2013-08-03 05:15:00
10:35 PM,55.4,50.0,82,29.93,10.0,ESE,3.5,-,N/A,,Clear,110,2013-08-03 05:35:00
10:55 PM,55.4,51.8,88,29.93,10.0,East,3.5,-,N/A,,Clear,90,2013-08-03 05:55:00
11:15 PM,55.4,51.8,88,29.93,10.0,ESE,3.5,-,N/A,,Clear,120,2013-08-03 06:15:00
11:35 PM,55.4,51.8,88,29.93,10.0,Calm,Calm,-,N/A,,Clear,0,2013-08-03 06:35:00
11:55 PM,55.4,51.8,88,29.93,10.0,South,3.5,-,N/A,,Clear,180,2013-08-03 06:55:00